| time (UTC) | temp F | wind direction | speed MPH | gust MPH | rain 1hr in | rain 24hr in | rain mn in | humidity % | barometer mb |
| 20260507040216 | 72 | 164 | 0.0 | 0.0 | 0.00 | 0.00 | 0.00 | 89 | 1009.9 |
| 20260507035716 | 72 | 164 | 0.0 | 0.0 | 0.00 | 0.00 | 0.00 | 89 | 1010.1 |
| 20260507035215 | 72 | 70 | 0.0 | 0.0 | 0.00 | 0.00 | 0.00 | 89 | 1010.0 |
| 20260507034945 | 72 | 69 | 0.0 | 0.0 | 0.00 | 0.00 | 0.00 | 89 | 1010.0 |
| 20260507033712 | 72 | 69 | 0.0 | 0.0 | 0.00 | 0.00 | 0.00 | 88 | 1010.1 |
| 20260507033210 | 72 | 69 | 0.0 | 0.0 | 0.00 | 0.00 | 0.00 | 88 | 1010.2 |
| 20260507032708 | 72 | 69 | 0.0 | 0.0 | 0.00 | 0.00 | 0.00 | 88 | 1010.3 |
| 20260507032206 | 73 | 69 | 0.0 | 0.0 | 0.00 | 0.00 | 0.00 | 88 | 1010.3 |
| 20260507031705 | 73 | 69 | 0.0 | 0.0 | 0.00 | 0.00 | 0.00 | 88 | 1010.3 |
| 20260507031203 | 73 | 69 | 0.0 | 0.0 | 0.00 | 0.00 | 0.00 | 88 | 1010.4 |
| 20260507030714 | 73 | 69 | 0.0 | 0.0 | 0.00 | 0.00 | 0.00 | 88 | 1010.5 |
| 20260507030212 | 73 | 69 | 0.0 | 0.0 | 0.00 | 0.00 | 0.00 | 88 | 1010.6 |
| 20260507025704 | 73 | 69 | 0.0 | 0.0 | 0.00 | 0.00 | 0.00 | 87 | 1010.7 |
| 20260507025201 | 73 | 69 | 0.0 | 0.0 | 0.00 | 0.00 | 0.00 | 87 | 1010.7 |
| 20260507024706 | 74 | 69 | 0.0 | 0.0 | 0.00 | 0.00 | 0.00 | 88 | 1010.7 |
| 20260507024659 | 74 | 69 | 0.0 | 0.0 | 0.00 | 0.00 | 0.00 | 88 | 1010.7 |
| 20260507023659 | 74 | 69 | 0.0 | 0.0 | 0.00 | 0.00 | 0.00 | 87 | 1010.8 |
| 20260507023157 | 74 | 69 | 0.0 | 0.0 | 0.00 | 0.00 | 0.00 | 87 | 1010.9 |
| 20260507022655 | 74 | 69 | 0.0 | 0.0 | 0.00 | 0.00 | 0.00 | 87 | 1010.9 |
| 20260507021652 | 74 | 69 | 0.0 | 0.0 | 0.00 | 0.00 | 0.00 | 86 | 1011.0 |
| 20260507021153 | 74 | 69 | 0.0 | 0.0 | 0.00 | 0.00 | 0.00 | 86 | 1011.0 |
| 20260507020653 | 74 | 69 | 0.0 | 0.0 | 0.00 | 0.00 | 0.00 | 85 | 1011.1 |
| 20260507020421 | 74 | 69 | 0.0 | 0.0 | 0.00 | 0.00 | 0.00 | 85 | 1011.1 |
| 20260507015648 | 75 | 69 | 0.0 | 0.0 | 0.00 | 0.00 | 0.00 | 85 | 1011.2 |
| 20260507015145 | 75 | 69 | 0.0 | 0.0 | 0.00 | 0.00 | 0.00 | 85 | 1011.1 |
| 20260507014145 | 75 | 69 | 0.0 | 0.0 | 0.00 | 0.00 | 0.00 | 84 | 1011.0 |
| 20260507013642 | 76 | 69 | 0.0 | 0.0 | 0.00 | 0.00 | 0.00 | 84 | 1011.0 |
| 20260507013414 | 76 | 69 | 0.0 | 0.0 | 0.00 | 0.00 | 0.00 | 84 | 1011.1 |
| 20260507012641 | 76 | 69 | 0.0 | 0.0 | 0.00 | 0.00 | 0.00 | 83 | 1011.2 |
| 20260507012139 | 76 | 69 | 0.0 | 0.0 | 0.00 | 0.00 | 0.00 | 83 | 1011.2 |
| 20260507011634 | 76 | 69 | 0.0 | 0.0 | 0.00 | 0.00 | 0.00 | 83 | 1011.3 |
| 20260507011140 | 77 | 69 | 0.0 | 0.0 | 0.00 | 0.00 | 0.00 | 83 | 1011.5 |
| 20260507011133 | 76 | 69 | 0.0 | 0.0 | 0.00 | 0.00 | 0.00 | 83 | 1011.4 |
| 20260507010132 | 77 | 69 | 0.0 | 0.0 | 0.00 | 0.00 | 0.00 | 82 | 1011.3 |
| 20260507005633 | 77 | 69 | 0.0 | 0.0 | 0.00 | 0.00 | 0.00 | 81 | 1011.3 |
| 20260507004633 | 78 | 69 | 0.0 | 0.0 | 0.00 | 0.00 | 0.00 | 80 | 1011.3 |
| 20260507004131 | 78 | 69 | 0.0 | 0.0 | 0.00 | 0.00 | 0.00 | 80 | 1011.3 |
| 20260507003630 | 78 | 69 | 0.0 | 0.0 | 0.00 | 0.00 | 0.00 | 79 | 1011.3 |
| 20260507003128 | 78 | 69 | 0.0 | 0.0 | 0.00 | 0.00 | 0.00 | 79 | 1011.3 |
| 20260507002628 | 78 | 69 | 0.0 | 0.0 | 0.00 | 0.00 | 0.00 | 78 | 1011.3 |
| 20260507002358 | 78 | 69 | 0.0 | 0.0 | 0.00 | 0.00 | 0.00 | 78 | 1011.3 |
| 20260507001623 | 79 | 69 | 0.0 | 0.0 | 0.00 | 0.00 | 0.00 | 78 | 1011.3 |
| 20260507001118 | 79 | 69 | 0.0 | 0.0 | 0.00 | 0.00 | 0.00 | 78 | 1011.3 |
| 20260507000613 | 79 | 69 | 0.0 | 0.0 | 0.00 | 0.00 | 0.00 | 77 | 1011.4 |
| 20260506235609 | 79 | 69 | 0.0 | 0.0 | 0.00 | 0.00 | 0.00 | 76 | 1011.4 |
| 20260506235115 | 79 | 67 | 0.0 | 0.0 | 0.00 | 0.00 | 0.00 | 75 | 1011.4 |
| 20260506235109 | 79 | 69 | 0.0 | 0.0 | 0.00 | 0.00 | 0.00 | 75 | 1011.4 |
| 20260506234105 | 80 | 67 | 0.0 | 0.0 | 0.00 | 0.00 | 0.00 | 75 | 1011.4 |
| 20260506233835 | 80 | 67 | 0.0 | 0.0 | 0.00 | 0.00 | 0.00 | 75 | 1011.5 |
| 20260506233054 | 80 | 68 | 0.0 | 5.0 | 0.00 | 0.00 | 0.00 | 74 | 1011.5 |
| 20260506232549 | 80 | 67 | 1.0 | 5.0 | 0.00 | 0.00 | 0.00 | 74 | 1011.4 |
| 20260506232042 | 80 | 80 | 1.0 | 5.0 | 0.00 | 0.00 | 0.00 | 74 | 1011.5 |
| 20260506231525 | 80 | 77 | 1.0 | 5.0 | 0.00 | 0.00 | 0.00 | 74 | 1011.4 |
| 20260506231021 | 80 | 74 | 1.0 | 5.0 | 0.00 | 0.00 | 0.00 | 75 | 1011.4 |
| 20260506230518 | 80 | 85 | 1.0 | 5.0 | 0.00 | 0.00 | 0.00 | 75 | 1011.3 |
| 20260506230016 | 80 | 80 | 2.0 | 6.0 | 0.00 | 0.00 | 0.00 | 75 | 1011.3 |
| 20260506225513 | 80 | 67 | 1.0 | 6.0 | 0.00 | 0.00 | 0.00 | 75 | 1011.2 |
| 20260506225012 | 80 | 80 | 1.0 | 5.0 | 0.00 | 0.00 | 0.00 | 75 | 1011.3 |
| 20260506224506 | 80 | 63 | 1.0 | 6.0 | 0.00 | 0.00 | 0.00 | 75 | 1011.3 |
| 20260506223954 | 80 | 70 | 1.0 | 6.0 | 0.00 | 0.00 | 0.00 | 75 | 1011.3 |
| 20260506222936 | 80 | 53 | 2.0 | 6.0 | 0.00 | 0.00 | 0.00 | 75 | 1011.2 |
| 20260506222426 | 80 | 54 | 2.0 | 6.0 | 0.00 | 0.00 | 0.00 | 75 | 1011.1 |
| 20260506221920 | 81 | 71 | 1.0 | 5.0 | 0.00 | 0.00 | 0.00 | 75 | 1011.2 |
| 20260506221907 | 81 | 61 | 1.0 | 5.0 | 0.00 | 0.00 | 0.00 | 75 | 1011.1 |
| 20260506220854 | 81 | 78 | 1.0 | 5.0 | 0.00 | 0.00 | 0.00 | 75 | 1011.1 |
| 20260506215829 | 81 | 74 | 0.0 | 6.0 | 0.00 | 0.00 | 0.00 | 76 | 1011.1 |
| 20260506215318 | 81 | 79 | 0.0 | 3.0 | 0.00 | 0.00 | 0.00 | 76 | 1011.1 |
| 20260506214809 | 81 | 69 | 1.0 | 5.0 | 0.00 | 0.00 | 0.00 | 76 | 1011.1 |
| 20260506214305 | 82 | 68 | 1.0 | 5.0 | 0.00 | 0.00 | 0.00 | 76 | 1011.0 |
| 20260506213753 | 82 | 69 | 0.0 | 5.0 | 0.00 | 0.00 | 0.00 | 75 | 1011.0 |
| 20260506213243 | 83 | 58 | 0.0 | 3.0 | 0.00 | 0.00 | 0.00 | 75 | 1011.1 |
| 20260506212732 | 83 | 62 | 0.0 | 3.0 | 0.00 | 0.00 | 0.00 | 74 | 1011.1 |
| 20260506212224 | 83 | 62 | 0.0 | 5.0 | 0.00 | 0.00 | 0.00 | 73 | 1011.0 |
| 20260506211713 | 83 | 58 | 1.0 | 5.0 | 0.00 | 0.00 | 0.00 | 73 | 1011.0 |
| 20260506211203 | 84 | 72 | 1.0 | 4.0 | 0.00 | 0.00 | 0.00 | 72 | 1011.0 |
| 20260506210651 | 84 | 73 | 1.0 | 4.0 | 0.00 | 0.00 | 0.00 | 71 | 1011.0 |
| 20260506210142 | 85 | 69 | 1.0 | 4.0 | 0.00 | 0.00 | 0.00 | 70 | 1011.1 |
| 20260506205632 | 85 | 72 | 0.0 | 4.0 | 0.00 | 0.00 | 0.00 | 69 | 1011.1 |
| 20260506205120 | 86 | 75 | 0.0 | 4.0 | 0.00 | 0.00 | 0.00 | 67 | 1011.1 |
| 20260506204611 | 87 | 62 | 0.0 | 3.0 | 0.00 | 0.00 | 0.00 | 66 | 1011.1 |
| 20260506204101 | 88 | 62 | 0.0 | 0.0 | 0.00 | 0.00 | 0.00 | 64 | 1011.1 |
| 20260506203544 | 88 | 62 | 0.0 | 0.0 | 0.00 | 0.00 | 0.00 | 63 | 1011.1 |
| 20260506203030 | 89 | 60 | 0.0 | 3.0 | 0.00 | 0.00 | 0.00 | 62 | 1011.1 |
| 20260506202515 | 89 | 62 | 0.0 | 3.0 | 0.00 | 0.00 | 0.00 | 60 | 1011.1 |
| 20260506202006 | 90 | 37 | 0.0 | 0.0 | 0.00 | 0.00 | 0.00 | 58 | 1011.1 |
| 20260506201453 | 90 | 37 | 0.0 | 0.0 | 0.00 | 0.00 | 0.00 | 57 | 1011.2 |
| 20260506200942 | 91 | 37 | 0.0 | 0.0 | 0.00 | 0.00 | 0.00 | 57 | 1011.2 |
| 20260506200433 | 91 | 37 | 0.0 | 0.0 | 0.00 | 0.00 | 0.00 | 56 | 1011.3 |
| 20260506195923 | 91 | 35 | 0.0 | 1.0 | 0.00 | 0.00 | 0.00 | 55 | 1011.4 |
| 20260506195412 | 92 | 35 | 0.0 | 1.0 | 0.00 | 0.00 | 0.00 | 55 | 1011.4 |
| 20260506194856 | 92 | 4 | 0.0 | 1.0 | 0.00 | 0.00 | 0.00 | 55 | 1011.4 |
| 20260506194617 | 92 | 12 | 0.0 | 0.0 | 0.00 | 0.00 | 0.00 | 55 | 1011.4 |
| 20260506193832 | 92 | 12 | 0.0 | 1.0 | 0.00 | 0.00 | 0.00 | 55 | 1011.5 |
| 20260506193103 | 92 | 14 | 0.0 | 1.0 | 0.00 | 0.00 | 0.00 | 55 | 1011.5 |
| 20260506192601 | 92 | 14 | 0.0 | 1.0 | 0.00 | 0.00 | 0.00 | 55 | 1011.5 |
| 20260506191827 | 92 | 353 | 0.0 | 1.0 | 0.00 | 0.00 | 0.00 | 55 | 1011.5 |
| 20260506191323 | 92 | 358 | 0.0 | 1.0 | 0.00 | 0.00 | 0.00 | 56 | 1011.5 |
| 20260506190324 | 92 | 14 | 0.0 | 1.0 | 0.00 | 0.00 | 0.00 | 56 | 1011.5 |
| 20260506185824 | 92 | 338 | 0.0 | 1.0 | 0.00 | 0.00 | 0.00 | 56 | 1011.6 |
| 20260506185322 | 91 | 339 | 0.0 | 2.0 | 0.00 | 0.00 | 0.00 | 56 | 1011.6 |
| 20260506184818 | 91 | 13 | 0.0 | 2.0 | 0.00 | 0.00 | 0.00 | 56 | 1011.6 |
| 20260506184318 | 91 | 37 | 0.0 | 4.0 | 0.00 | 0.00 | 0.00 | 56 | 1011.5 |
| 20260506184048 | 91 | 341 | 0.0 | 4.0 | 0.00 | 0.00 | 0.00 | 56 | 1011.5 |
| 20260506183317 | 91 | 31 | 0.0 | 3.0 | 0.00 | 0.00 | 0.00 | 56 | 1011.6 |
| 20260506182818 | 91 | 342 | 1.0 | 5.0 | 0.00 | 0.00 | 0.00 | 55 | 1011.7 |
| 20260506182316 | 92 | 10 | 1.0 | 7.0 | 0.00 | 0.00 | 0.00 | 55 | 1011.7 |
| 20260506182046 | 92 | 339 | 1.0 | 7.0 | 0.00 | 0.00 | 0.00 | 55 | 1011.8 |
| 20260506181315 | 92 | 347 | 1.0 | 5.0 | 0.00 | 0.00 | 0.00 | 55 | 1011.9 |
| 20260506180814 | 92 | 339 | 1.0 | 5.0 | 0.00 | 0.00 | 0.00 | 56 | 1011.8 |
| 20260506180312 | 92 | 341 | 1.0 | 7.0 | 0.00 | 0.00 | 0.00 | 55 | 1011.9 |
| 20260506175802 | 92 | 335 | 1.0 | 7.0 | 0.00 | 0.00 | 0.00 | 55 | 1012.0 |
| 20260506175300 | 92 | 18 | 0.0 | 4.0 | 0.00 | 0.00 | 0.00 | 55 | 1012.0 |
| 20260506174759 | 92 | 353 | 1.0 | 9.0 | 0.00 | 0.00 | 0.00 | 56 | 1012.1 |
| 20260506174259 | 92 | 2 | 1.0 | 9.0 | 0.00 | 0.00 | 0.00 | 55 | 1012.1 |
| 20260506173800 | 92 | 27 | 2.0 | 11.0 | 0.00 | 0.00 | 0.00 | 56 | 1012.2 |
| 20260506173257 | 92 | 303 | 3.0 | 11.0 | 0.00 | 0.00 | 0.00 | 56 | 1012.3 |
| 20260506172300 | 92 | 314 | 2.0 | 10.0 | 0.00 | 0.00 | 0.00 | 56 | 1012.5 |
| 20260506172253 | 92 | 341 | 2.0 | 10.0 | 0.00 | 0.00 | 0.00 | 56 | 1012.5 |
| 20260506171519 | 92 | 299 | 1.0 | 9.0 | 0.00 | 0.00 | 0.00 | 57 | 1012.5 |
| 20260506170747 | 92 | 348 | 1.0 | 9.0 | 0.00 | 0.00 | 0.00 | 57 | 1012.6 |
| 20260506170510 | 92 | 310 | 1.0 | 10.0 | 0.00 | 0.00 | 0.00 | 56 | 1012.7 |
| 20260506170008 | 91 | 8 | 1.0 | 10.0 | 0.00 | 0.00 | 0.00 | 57 | 1012.7 |
| 20260506165237 | 91 | 350 | 1.0 | 8.0 | 0.00 | 0.00 | 0.00 | 57 | 1012.8 |
| 20260506164737 | 91 | 337 | 1.0 | 8.0 | 0.00 | 0.00 | 0.00 | 58 | 1012.9 |
| 20260506164237 | 91 | 314 | 1.0 | 7.0 | 0.00 | 0.00 | 0.00 | 58 | 1013.0 |
| 20260506163734 | 90 | 331 | 1.0 | 7.0 | 0.00 | 0.00 | 0.00 | 59 | 1013.1 |
| 20260506163228 | 90 | 318 | 1.0 | 5.0 | 0.00 | 0.00 | 0.00 | 58 | 1013.2 |
| 20260506162729 | 90 | 333 | 1.0 | 7.0 | 0.00 | 0.00 | 0.00 | 59 | 1013.3 |
| 20260506162229 | 90 | 297 | 1.0 | 8.0 | 0.00 | 0.00 | 0.00 | 58 | 1013.3 |
| 20260506161736 | 90 | 335 | 1.0 | 7.0 | 0.00 | 0.00 | 0.00 | 59 | 1013.6 |
| 20260506161726 | 90 | 7 | 1.0 | 7.0 | 0.00 | 0.00 | 0.00 | 59 | 1013.5 |
| 20260506160719 | 90 | 344 | 0.0 | 6.0 | 0.00 | 0.00 | 0.00 | 58 | 1013.6 |
| 20260506160442 | 90 | 358 | 0.0 | 3.0 | 0.00 | 0.00 | 0.00 | 60 | 1013.9 |
| 20260506155708 | 90 | 37 | 1.0 | 5.0 | 0.00 | 0.00 | 0.00 | 61 | 1014.0 |
| 20260506155207 | 89 | 35 | 1.0 | 5.0 | 0.00 | 0.00 | 0.00 | 61 | 1014.0 |
| 20260506154709 | 88 | 283 | 2.0 | 7.0 | 0.00 | 0.00 | 0.00 | 61 | 1014.2 |
| 20260506154205 | 88 | 306 | 2.0 | 8.0 | 0.00 | 0.00 | 0.00 | 61 | 1014.2 |
| 20260506153945 | 88 | 299 | 2.0 | 10.0 | 0.00 | 0.00 | 0.00 | 61 | 1014.3 |
| 20260506153153 | 89 | 311 | 1.0 | 10.0 | 0.00 | 0.00 | 0.00 | 61 | 1014.5 |
| 20260506152702 | 89 | 311 | 2.0 | 8.0 | 0.00 | 0.00 | 0.00 | 61 | 1014.5 |
| 20260506152150 | 89 | 312 | 1.0 | 8.0 | 0.00 | 0.00 | 0.00 | 61 | 1014.6 |
| 20260506151646 | 88 | 329 | 0.0 | 3.0 | 0.00 | 0.00 | 0.00 | 62 | 1014.8 |
| 20260506151141 | 88 | 267 | 0.0 | 5.0 | 0.00 | 0.00 | 0.00 | 61 | 1014.9 |
| 20260506150640 | 88 | 295 | 0.0 | 6.0 | 0.00 | 0.00 | 0.00 | 62 | 1015.0 |
| 20260506150134 | 88 | 264 | 1.0 | 7.0 | 0.00 | 0.00 | 0.00 | 61 | 1015.0 |
| 20260506145630 | 88 | 359 | 2.0 | 8.0 | 0.00 | 0.00 | 0.00 | 63 | 1015.1 |
| 20260506145120 | 87 | 18 | 1.0 | 8.0 | 0.00 | 0.00 | 0.00 | 62 | 1015.1 |
| 20260506144616 | 87 | 310 | 0.0 | 5.0 | 0.00 | 0.00 | 0.00 | 63 | 1015.2 |
| 20260506144115 | 86 | 272 | 0.0 | 4.0 | 0.00 | 0.00 | 0.00 | 65 | 1015.2 |
| 20260506143611 | 85 | 270 | 0.0 | 4.0 | 0.00 | 0.00 | 0.00 | 66 | 1015.2 |
| 20260506143334 | 84 | 168 | 0.0 | 2.0 | 0.00 | 0.00 | 0.00 | 67 | 1015.3 |
| 20260506142602 | 83 | 131 | 0.0 | 2.0 | 0.00 | 0.00 | 0.00 | 68 | 1015.2 |
| 20260506142102 | 83 | 197 | 0.0 | 4.0 | 0.00 | 0.00 | 0.00 | 71 | 1015.3 |
| 20260506141550 | 82 | 207 | 1.0 | 4.0 | 0.00 | 0.00 | 0.00 | 72 | 1015.3 |
| 20260506141048 | 82 | 208 | 1.0 | 5.0 | 0.00 | 0.00 | 0.00 | 73 | 1015.5 |
| 20260506140541 | 81 | 237 | 1.0 | 5.0 | 0.00 | 0.00 | 0.00 | 73 | 1015.5 |
| 20260506140306 | 80 | 224 | 2.0 | 6.0 | 0.00 | 0.00 | 0.00 | 76 | 1015.7 |
| 20260506140140 | 81 | 260 | 2.0 | 6.0 | 0.00 | 0.00 | 0.00 | 74 | 1015.6 |
| 20260506135028 | 80 | 199 | 0.0 | 1.0 | 0.00 | 0.00 | 0.00 | 77 | 1015.8 |
| 20260506133958 | 79 | 199 | 1.0 | 4.0 | 0.00 | 0.00 | 0.00 | 77 | 1016.0 |
| 20260506133717 | 80 | 199 | 1.0 | 4.0 | 0.00 | 0.00 | 0.00 | 77 | 1016.1 |
| 20260506132940 | 80 | 207 | 0.0 | 4.0 | 0.00 | 0.00 | 0.00 | 76 | 1016.2 |
| 20260506132424 | 80 | 200 | 0.0 | 2.0 | 0.00 | 0.00 | 0.00 | 76 | 1016.0 |
| 20260506131914 | 80 | 199 | 0.0 | 0.0 | 0.00 | 0.00 | 0.00 | 76 | 1016.1 |
| 20260506131403 | 79 | 199 | 0.0 | 0.0 | 0.00 | 0.00 | 0.00 | 77 | 1015.9 |
| 20260506130839 | 78 | 199 | 0.0 | 0.0 | 0.00 | 0.00 | 0.00 | 78 | 1016.0 |
| 20260506130600 | 78 | 200 | 0.0 | 2.0 | 0.00 | 0.00 | 0.00 | 79 | 1016.0 |
| 20260506130050 | 78 | 200 | 0.0 | 3.0 | 0.00 | 0.00 | 0.00 | 79 | 1016.2 |
| 20260506125310 | 77 | 191 | 0.0 | 3.0 | 0.00 | 0.00 | 0.00 | 81 | 1016.3 |
| 20260506124747 | 77 | 203 | 1.0 | 3.0 | 0.00 | 0.00 | 0.00 | 81 | 1016.6 |
| 20260506124508 | 76 | 199 | 0.0 | 4.0 | 0.00 | 0.00 | 0.00 | 81 | 1016.6 |
| 20260506123728 | 76 | 202 | 0.0 | 4.0 | 0.00 | 0.00 | 0.00 | 81 | 1016.6 |
| 20260506123228 | 76 | 204 | 0.0 | 0.0 | 0.00 | 0.00 | 0.00 | 82 | 1016.7 |
| 20260506122719 | 76 | 204 | 0.0 | 0.0 | 0.00 | 0.00 | 0.00 | 82 | 1016.4 |
| 20260506122210 | 75 | 204 | 0.0 | 3.0 | 0.00 | 0.00 | 0.00 | 83 | 1016.6 |
| 20260506121650 | 75 | 204 | 0.0 | 3.0 | 0.00 | 0.00 | 0.00 | 83 | 1016.3 |
| 20260506121139 | 75 | 226 | 0.0 | 2.0 | 0.00 | 0.00 | 0.00 | 83 | 1016.4 |
| 20260506120630 | 75 | 238 | 0.0 | 2.0 | 0.00 | 0.00 | 0.00 | 83 | 1016.5 |
| 20260506120111 | 74 | 197 | 0.0 | 0.0 | 0.00 | 0.00 | 0.00 | 84 | 1016.5 |
| 20260506115601 | 74 | 197 | 0.0 | 0.0 | 0.00 | 0.00 | 0.00 | 85 | 1016.3 |
| 20260506115050 | 73 | 197 | 0.0 | 0.0 | 0.00 | 0.00 | 0.00 | 85 | 1016.3 |
| 20260506114539 | 73 | 197 | 0.0 | 0.0 | 0.00 | 0.00 | 0.00 | 86 | 1016.4 |
| 20260506114018 | 72 | 197 | 0.0 | 0.0 | 0.00 | 0.00 | 0.00 | 86 | 1016.4 |
| 20260506113508 | 72 | 197 | 0.0 | 0.0 | 0.00 | 0.00 | 0.00 | 87 | 1016.5 |
| 20260506112437 | 71 | 197 | 0.0 | 0.0 | 0.00 | 0.00 | 0.00 | 88 | 1016.5 |
| 20260506111919 | 71 | 197 | 0.0 | 1.0 | 0.00 | 0.00 | 0.00 | 88 | 1016.4 |
| 20260506111411 | 71 | 197 | 0.0 | 2.0 | 0.00 | 0.00 | 0.00 | 89 | 1016.4 |
| 20260506110858 | 71 | 197 | 1.0 | 4.0 | 0.00 | 0.00 | 0.00 | 89 | 1016.4 |
| 20260506110356 | 70 | 197 | 1.0 | 4.0 | 0.00 | 0.00 | 0.00 | 90 | 1016.4 |
| 20260506105855 | 70 | 197 | 0.0 | 2.0 | 0.00 | 0.00 | 0.00 | 90 | 1016.3 |
| 20260506104841 | 69 | 195 | 0.0 | 1.0 | 0.00 | 0.02 | 0.00 | 91 | 1016.1 |
| 20260506104610 | 69 | 195 | 0.0 | 3.0 | 0.00 | 0.02 | 0.00 | 91 | 1016.1 |
| 20260506103837 | 69 | 195 | 0.0 | 3.0 | 0.00 | 0.02 | 0.00 | 91 | 1016.0 |
| 20260506103313 | 68 | 162 | 0.0 | 2.0 | 0.00 | 0.02 | 0.00 | 91 | 1016.0 |
| 20260506102813 | 68 | 155 | 0.0 | 0.0 | 0.00 | 0.02 | 0.00 | 91 | 1015.8 |
| 20260506102308 | 68 | 54 | 0.0 | 0.0 | 0.00 | 0.02 | 0.00 | 91 | 1015.8 |
| 20260506101808 | 67 | 54 | 0.0 | 0.0 | 0.00 | 0.02 | 0.00 | 91 | 1015.7 |
| 20260506101306 | 67 | 54 | 0.0 | 0.0 | 0.00 | 0.02 | 0.00 | 91 | 1015.6 |
| 20260506100804 | 67 | 54 | 0.0 | 0.0 | 0.00 | 0.02 | 0.00 | 91 | 1015.5 |
| 20260506100311 | 68 | 147 | 0.0 | 0.0 | 0.00 | 0.02 | 0.00 | 92 | 1015.4 |
| 20260506100305 | 68 | 53 | 0.0 | 0.0 | 0.00 | 0.02 | 0.00 | 91 | 1015.3 |
| 20260506095306 | 68 | 147 | 0.0 | 0.0 | 0.00 | 0.02 | 0.00 | 92 | 1015.4 |
| 20260506094804 | 68 | 147 | 0.0 | 0.0 | 0.00 | 0.02 | 0.00 | 92 | 1015.5 |
| 20260506094303 | 68 | 147 | 0.0 | 0.0 | 0.00 | 0.02 | 0.00 | 92 | 1015.4 |
| 20260506093803 | 68 | 147 | 0.0 | 0.0 | 0.00 | 0.02 | 0.00 | 92 | 1015.5 |
| 20260506093301 | 68 | 147 | 0.0 | 0.0 | 0.00 | 0.02 | 0.00 | 92 | 1015.5 |
| 20260506092800 | 68 | 147 | 0.0 | 0.0 | 0.00 | 0.02 | 0.00 | 92 | 1015.5 |
| 20260506092301 | 68 | 147 | 0.0 | 0.0 | 0.00 | 0.02 | 0.00 | 92 | 1015.3 |
| 20260506091800 | 68 | 147 | 0.0 | 0.0 | 0.00 | 0.02 | 0.00 | 92 | 1015.3 |
| 20260506091258 | 67 | 147 | 0.0 | 0.0 | 0.00 | 0.02 | 0.00 | 92 | 1015.4 |
| 20260506091026 | 67 | 70 | 0.0 | 0.0 | 0.00 | 0.02 | 0.00 | 92 | 1015.3 |
| 20260506090256 | 67 | 68 | 0.0 | 0.0 | 0.00 | 0.02 | 0.00 | 92 | 1015.3 |
| 20260506085754 | 67 | 66 | 0.0 | 0.0 | 0.00 | 0.02 | 0.00 | 92 | 1015.3 |
| 20260506085255 | 66 | 66 | 0.0 | 0.0 | 0.00 | 0.02 | 0.00 | 92 | 1015.2 |
| 20260506084754 | 66 | 66 | 0.0 | 0.0 | 0.00 | 0.02 | 0.00 | 91 | 1015.2 |
| 20260506084255 | 66 | 66 | 0.0 | 0.0 | 0.00 | 0.02 | 0.00 | 92 | 1015.1 |
| 20260506083754 | 66 | 66 | 0.0 | 0.0 | 0.00 | 0.02 | 0.00 | 92 | 1015.1 |
| 20260506083254 | 66 | 66 | 0.0 | 0.0 | 0.00 | 0.02 | 0.00 | 91 | 1015.2 |
| 20260506082753 | 66 | 66 | 0.0 | 0.0 | 0.00 | 0.02 | 0.00 | 91 | 1015.2 |
| 20260506082252 | 66 | 66 | 0.0 | 0.0 | 0.00 | 0.02 | 0.00 | 91 | 1015.2 |
| 20260506081752 | 66 | 66 | 0.0 | 0.0 | 0.00 | 0.02 | 0.00 | 91 | 1015.1 |
| 20260506081250 | 66 | 66 | 0.0 | 0.0 | 0.00 | 0.02 | 0.00 | 91 | 1015.1 |
| 20260506080750 | 66 | 66 | 0.0 | 0.0 | 0.00 | 0.02 | 0.00 | 91 | 1015.1 |
| 20260506080243 | 66 | 66 | 0.0 | 0.0 | 0.00 | 0.02 | 0.00 | 91 | 1015.1 |
| 20260506073221 | 66 | 66 | 0.0 | 0.0 | 0.00 | 0.02 | 0.00 | 91 | 1015.5 |
| 20260506072213 | 66 | 66 | 0.0 | 0.0 | 0.00 | 0.02 | 0.00 | 91 | 1015.6 |
| 20260506071711 | 66 | 66 | 0.0 | 0.0 | 0.00 | 0.02 | 0.00 | 91 | 1015.6 |
| 20260506071207 | 66 | 66 | 0.0 | 0.0 | 0.00 | 0.02 | 0.00 | 91 | 1015.6 |
| 20260506070659 | 66 | 66 | 0.0 | 0.0 | 0.00 | 0.02 | 0.00 | 91 | 1015.7 |
| 20260506070150 | 67 | 66 | 0.0 | 0.0 | 0.00 | 0.02 | 0.00 | 91 | 1015.6 |
| 20260506062118 | 67 | 66 | 0.0 | 0.0 | 0.00 | 0.02 | 0.00 | 90 | 1015.9 |
| 20260506061619 | 67 | 66 | 0.0 | 0.0 | 0.00 | 0.02 | 0.00 | 90 | 1015.9 |
| 20260506061108 | 67 | 66 | 0.0 | 0.0 | 0.00 | 0.02 | 0.00 | 90 | 1015.9 |
| 20260506060608 | 67 | 66 | 0.0 | 0.0 | 0.00 | 0.02 | 0.00 | 90 | 1016.0 |
| 20260506050910 | 69 | 66 | 0.0 | 0.0 | 0.00 | 0.02 | 0.00 | 89 | 1016.0 |
| 20260506050400 | 69 | 66 | 0.0 | 0.0 | 0.00 | 0.02 | 0.00 | 89 | 1016.0 |
| 20260506050122 | 69 | 66 | 0.0 | 0.0 | 0.00 | 0.02 | 0.00 | 89 | 1016.0 |
| 20260506045102 | 69 | 66 | 0.0 | 0.0 | 0.00 | 0.02 | 0.00 | 89 | 1015.9 |
| 20260506043811 | 69 | 50 | 0.0 | 0.0 | 0.00 | 0.02 | 0.00 | 88 | 1016.0 |
| 20260506043301 | 70 | 50 | 0.0 | 0.0 | 0.00 | 0.02 | 0.00 | 88 | 1015.9 |
| 20260506042752 | 70 | 50 | 0.0 | 0.0 | 0.00 | 0.02 | 0.00 | 88 | 1015.8 |
| 20260506042241 | 70 | 67 | 0.0 | 0.0 | 0.00 | 0.02 | 0.00 | 88 | 1015.6 |
| 20260506041727 | 70 | 67 | 0.0 | 0.0 | 0.00 | 0.02 | 0.00 | 88 | 1015.5 |
| 20260506041216 | 70 | 68 | 0.0 | 0.0 | 0.00 | 0.02 | 0.00 | 88 | 1015.6 |
| 20260506040707 | 70 | 67 | 0.0 | 0.0 | 0.00 | 0.02 | 0.00 | 88 | 1015.6 |